EW8665 Weather Reports


time (UTC)temp
C
wind
direction
speed
KPH
gust
KPH
rain 1hr
cm
rain 24hr
cm
rain mn
cm
humidity
%
barometer
mb
20260904094005 26 241 6.4 16.1 0.00 0.00 0.00 44 1021.1
20260904093505 26 245 11.3 27.4 0.00 0.00 0.00 44 1021.2
20260904093005 26 242 12.9 27.4 0.00 0.00 0.00 45 1021.4
20260904092505 26 235 9.7 20.9 0.00 0.00 0.00 44 1021.1
20260904092005 26 223 8.0 14.5 0.00 0.00 0.00 45 1021.1
20260904091005 26 217 8.0 19.3 0.00 0.00 0.00 45 1021.2
20260904090505 26 213 9.7 19.3 0.00 0.00 0.00 45 1021.0
20260904085505 26 234 6.4 12.9 0.00 0.00 0.00 45 1020.9
20260904085005 26 237 6.4 12.9 0.00 0.00 0.00 45 1021.1
20260904084505 26 240 4.8 12.9 0.00 0.00 0.00 45 1020.9
20260904083505 25 241 8.0 14.5 0.00 0.00 0.00 45 1020.9
20260904083005 25 219 8.0 14.5 0.00 0.00 0.00 45 1020.9
20260904082505 25 196 6.4 16.1 0.00 0.00 0.00 45 1020.9
20260904082005 25 191 6.4 16.1 0.00 0.00 0.00 45 1021.0
20260904081506 25 199 4.8 14.5 0.00 0.00 0.00 46 1020.9
20260904081005 25 201 6.4 14.5 0.00 0.00 0.00 46 1020.8
20260904080506 25 194 6.4 12.9 0.00 0.00 0.00 46 1020.7
20260904075505 24 210 4.8 12.9 0.00 0.00 0.00 47 1020.8
20260904075005 24 195 6.4 14.5 0.00 0.00 0.00 48 1020.9
20260904074505 23 173 4.8 14.5 0.00 0.00 0.00 50 1020.7
20260904074005 22 133 1.6 3.2 0.00 0.00 0.00 57 1020.8
20260904073505 22 101 1.6 4.8 0.00 0.00 0.00 57 1020.9
20260904073005 22 82 1.6 4.8 0.00 0.00 0.00 60 1020.9
20260904072505 22 63 1.6 4.8 0.00 0.00 0.00 64 1020.8
20260904071505 21 41 0.0 3.2 0.00 0.00 0.00 66 1020.8
20260904071005 21 42 1.6 3.2 0.00 0.00 0.00 66 1020.7
20260904070005 20 57 1.6 4.8 0.00 0.00 0.00 68 1021.0
20260904065505 20 65 3.2 4.8 0.00 0.00 0.00 68 1021.0
20260904064505 19 66 3.2 4.8 0.00 0.00 0.00 68 1021.2
20260904064005 18 62 3.2 4.8 0.00 0.00 0.00 69 1021.3
20260904062505 18 53 3.2 6.4 0.00 0.00 0.00 71 1021.3
20260904062005 18 49 4.8 8.0 0.00 0.00 0.00 71 1021.3
20260904061506 17 49 3.2 8.0 0.00 0.00 0.00 72 1021.3
20260904061005 17 57 3.2 6.4 0.00 0.00 0.00 72 1021.3
20260904060005 17 65 4.8 6.4 0.00 0.00 0.00 75 1021.4
20260904055505 16 59 3.2 6.4 0.00 0.00 0.00 76 1021.4
20260904055005 16 79 1.6 6.4 0.00 0.00 0.00 76 1021.4
20260904054505 16 80 1.6 4.8 0.00 0.00 0.00 76 1021.5
20260904054005 16 84 1.6 3.2 0.00 0.00 0.00 75 1021.5
20260904053505 16 85 1.6 3.2 0.00 0.00 0.00 75 1021.7
20260904053005 16 90 3.2 4.8 0.00 0.00 0.00 75 1021.5
20260904052505 16 89 3.2 4.8 0.00 0.00 0.00 75 1021.4
20260904052005 16 85 3.2 6.4 0.00 0.00 0.00 75 1021.4
20260904051505 16 84 3.2 6.4 0.00 0.00 0.00 75 1021.4
20260904051005 16 83 4.8 6.4 0.00 0.00 0.00 75 1021.4
20260904050505 16 82 3.2 6.4 0.00 0.00 0.00 75 1021.4
20260904050005 16 82 3.2 6.4 0.00 0.00 0.00 75 1021.6
20260904045505 16 82 3.2 6.4 0.00 0.00 0.00 75 1021.7
20260904045005 16 89 3.2 6.4 0.00 0.00 0.00 75 1021.6
20260904044504 16 88 3.2 6.4 0.00 0.00 0.00 75 1021.6
20260904044005 16 84 1.6 3.2 0.00 0.00 0.00 75 1021.7
20260904043505 16 82 1.6 3.2 0.00 0.00 0.00 75 1021.5
20260904042505 16 88 1.6 3.2 0.00 0.00 0.00 75 1021.8
20260904042005 16 85 1.6 3.2 0.00 0.00 0.00 75 1021.8
20260904041505 16 83 1.6 3.2 0.00 0.00 0.00 74 1021.6
20260904040505 16 63 1.6 4.8 0.00 0.00 0.00 74 1022.0
20260904040005 16 56 1.6 4.8 0.00 0.00 0.00 74 1022.1
20260904035504 16 56 3.2 4.8 0.00 0.00 0.00 74 1022.2
20260904035005 16 55 3.2 6.4 0.00 0.00 0.00 74 1022.3
20260904034505 16 56 4.8 6.4 0.00 0.00 0.00 74 1022.2
20260904034005 16 57 3.2 4.8 0.00 0.00 0.00 74 1022.2
20260904033505 16 72 3.2 4.8 0.00 0.00 0.00 74 1022.3
20260904033005 16 78 3.2 4.8 0.00 0.00 0.00 74 1022.5
20260904032006 16 80 3.2 4.8 0.00 0.00 0.00 73 1022.5
20260904031505 17 81 3.2 6.4 0.00 0.00 0.00 73 1022.5
20260904031005 17 80 3.2 6.4 0.00 0.00 0.00 73 1022.6
20260904030005 17 79 3.2 8.0 0.00 0.00 0.00 73 1022.3
20260904025506 17 82 3.2 6.4 0.00 0.00 0.00 72 1022.5
20260904025005 17 80 3.2 6.4 0.00 0.00 0.00 72 1022.6
20260904024505 17 81 3.2 4.8 0.00 0.00 0.00 72 1022.7
20260904024004 17 82 4.8 9.7 0.00 0.00 0.00 72 1022.6
20260904023505 17 88 4.8 9.7 0.00 0.00 0.00 72 1022.8
20260904023006 17 82 3.2 8.0 0.00 0.00 0.00 72 1022.8
20260904022505 17 77 3.2 4.8 0.00 0.00 0.00 72 1022.8
20260904022005 17 72 3.2 4.8 0.00 0.00 0.00 68 1022.8
20260904021505 17 69 3.2 4.8 0.00 0.00 0.00 67 1022.8
20260904021004 17 73 3.2 9.7 0.00 0.00 0.00 67 1022.8
20260904020505 17 74 4.8 9.7 0.00 0.00 0.00 66 1022.8
20260904020005 18 72 4.8 9.7 0.00 0.00 0.00 66 1022.8
20260904015505 17 67 4.8 8.0 0.00 0.00 0.00 66 1022.8
20260904015005 17 74 6.4 9.7 0.00 0.00 0.00 66 1022.8
20260904014505 17 73 3.2 9.7 0.00 0.00 0.00 66 1022.9
20260904014005 17 67 3.2 9.7 0.00 0.00 0.00 66 1022.9
20260904013505 17 65 6.4 11.3 0.00 0.00 0.00 66 1023.2
20260904013004 17 62 6.4 11.3 0.00 0.00 0.00 66 1023.0
20260904012505 17 62 6.4 8.0 0.00 0.00 0.00 67 1023.2
20260904011506 17 57 4.8 8.0 0.00 0.00 0.00 67 1023.4
20260904011005 17 53 4.8 8.0 0.00 0.00 0.00 67 1023.4
20260904010505 17 48 4.8 8.0 0.00 0.00 0.00 67 1023.4
20260904005505 17 45 6.4 11.3 0.00 0.00 0.00 66 1023.5
20260904005005 17 43 6.4 12.9 0.00 0.00 0.00 67 1023.5
20260904004006 17 43 4.8 11.3 0.00 0.00 0.00 67 1023.6
20260904003505 17 46 4.8 11.3 0.00 0.00 0.00 68 1023.8
20260904001505 18 75 4.8 8.0 0.00 0.00 0.00 67 1024.0
20260904001005 18 81 3.2 8.0 0.00 0.00 0.00 67 1023.8
20260904000504 18 89 3.2 6.4 0.00 0.00 0.00 67 1023.9
20260904000005 18 84 3.2 6.4 0.00 0.00 0.00 66 1024.0
20260903235505 18 85 3.2 6.4 0.00 0.00 0.00 66 1023.8
20260903235006 18 83 4.8 12.9 0.00 0.00 0.00 66 1023.8
20260903234505 18 81 4.8 12.9 0.00 0.00 0.00 65 1023.7
20260903234005 18 76 4.8 8.0 0.00 0.00 0.00 66 1023.8
20260903233505 18 69 3.2 8.0 0.00 0.00 0.00 66 1024.0
20260903233004 18 67 4.8 9.7 0.00 0.00 0.00 66 1023.8
20260903232505 18 63 4.8 9.7 0.00 0.00 0.00 66 1023.8
20260903232005 18 63 4.8 8.0 0.00 0.00 0.00 65 1024.1
20260903231505 18 59 3.2 8.0 0.00 0.00 0.00 65 1024.1
20260903230004 18 67 4.8 6.4 0.00 0.00 0.00 66 1024.2
20260903225505 18 69 4.8 9.7 0.00 0.00 0.00 65 1024.2
20260903225006 18 66 4.8 11.3 0.00 0.00 0.00 65 1024.2
20260903224505 18 65 3.2 11.3 0.00 0.00 0.00 64 1024.3
20260903224004 18 65 6.4 11.3 0.00 0.00 0.00 65 1024.3
20260903223505 18 64 6.4 11.3 0.00 0.00 0.00 64 1024.1
20260903223005 19 60 4.8 8.0 0.00 0.00 0.00 64 1024.4
20260903222505 19 63 4.8 11.3 0.00 0.00 0.00 64 1024.4
20260903221505 19 64 6.4 11.3 0.00 0.00 0.00 64 1024.3
20260903221004 19 59 4.8 9.7 0.00 0.00 0.00 64 1024.3
20260903220505 19 60 3.2 8.0 0.00 0.00 0.00 64 1024.5
20260903220005 19 55 4.8 8.0 0.00 0.00 0.00 64 1024.5
20260903215006 19 47 4.8 8.0 0.00 0.00 0.00 64 1024.3
20260903214505 19 43 4.8 8.0 0.00 0.00 0.00 64 1024.6
20260903214005 19 44 6.4 9.7 0.00 0.00 0.00 64 1024.3
20260903213505 19 42 4.8 9.7 0.00 0.00 0.00 64 1024.5
20260903213005 19 43 4.8 11.3 0.00 0.00 0.00 63 1024.7
20260903212504 19 40 6.4 11.3 0.00 0.00 0.00 64 1024.6
20260903212005 20 42 6.4 11.3 0.00 0.00 0.00 63 1024.6
20260903211504 20 47 6.4 11.3 0.00 0.00 0.00 63 1024.4
20260903211005 20 47 6.4 11.3 0.00 0.00 0.00 63 1024.7
20260903210506 20 58 4.8 9.7 0.00 0.00 0.00 63 1024.6
20260903210005 20 57 4.8 9.7 0.00 0.00 0.00 63 1024.7
20260903205504 20 64 4.8 8.0 0.00 0.00 0.00 63 1024.8
20260903205005 20 63 6.4 12.9 0.00 0.00 0.00 63 1024.6
20260903204504 20 61 6.4 12.9 0.00 0.00 0.00 63 1024.6
20260903204006 20 61 6.4 9.7 0.00 0.00 0.00 63 1024.6
20260903203505 20 53 4.8 9.7 0.00 0.00 0.00 63 1024.6
20260903203006 20 59 4.8 9.7 0.00 0.00 0.00 63 1024.6
20260903202504 20 59 4.8 9.7 0.00 0.00 0.00 63 1024.7
20260903202005 20 62 4.8 8.0 0.00 0.00 0.00 63 1024.8
20260903201005 20 58 4.8 9.7 0.00 0.00 0.00 63 1024.6
20260903200505 20 55 4.8 9.7 0.00 0.00 0.00 63 1024.6
20260903200005 20 52 4.8 9.7 0.00 0.00 0.00 63 1024.7
20260903195505 20 50 4.8 11.3 0.00 0.00 0.00 63 1024.5
20260903195005 20 52 6.4 11.3 0.00 0.00 0.00 63 1024.5
20260903194505 20 54 6.4 11.3 0.00 0.00 0.00 62 1024.7
20260903194005 20 52 4.8 8.0 0.00 0.00 0.00 62 1024.6
20260903193004 20 46 6.4 11.3 0.00 0.00 0.00 61 1024.5
20260903192505 20 42 6.4 11.3 0.00 0.00 0.00 62 1024.6
20260903192004 20 45 4.8 11.3 0.00 0.00 0.00 63 1024.6
20260903190504 21 45 3.2 8.0 0.00 0.00 0.00 63 1024.5
20260903185504 21 49 4.8 9.7 0.00 0.00 0.00 62 1024.5
20260903184505 21 45 6.4 11.3 0.00 0.00 0.00 60 1024.3
20260903184005 22 42 6.4 9.7 0.00 0.00 0.00 59 1024.2
20260903183004 22 52 4.8 9.7 0.00 0.00 0.00 59 1024.1
20260903182004 22 61 3.2 6.4 0.00 0.00 0.00 55 1024.2
20260903181505 22 64 4.8 6.4 0.00 0.00 0.00 54 1024.0
20260903180505 23 169 1.6 4.8 0.00 0.00 0.00 53 1023.9
20260903180005 23 201 1.6 6.4 0.00 0.00 0.00 52 1023.8
20260903175505 24 228 1.6 6.4 0.00 0.00 0.00 50 1023.8
20260903175005 24 229 1.6 6.4 0.00 0.00 0.00 49 1023.7
20260903174005 25 229 1.6 6.4 0.00 0.00 0.00 46 1023.8
20260903173504 25 228 4.8 9.7 0.00 0.00 0.00 46 1023.7
20260903173005 25 226 6.4 12.9 0.00 0.00 0.00 46 1023.6
20260903172505 25 223 6.4 12.9 0.00 0.00 0.00 45 1023.5
20260903172004 25 221 6.4 12.9 0.00 0.00 0.00 45 1023.4
20260903171505 25 223 6.4 12.9 0.00 0.00 0.00 45 1023.5
20260903170505 26 226 6.4 16.1 0.00 0.00 0.00 45 1023.6
20260903165505 26 225 6.4 12.9 0.00 0.00 0.00 45 1023.7
20260903165006 26 227 6.4 12.9 0.00 0.00 0.00 45 1023.7
20260903164504 26 230 6.4 12.9 0.00 0.00 0.00 45 1023.7
20260903164004 26 233 6.4 11.3 0.00 0.00 0.00 44 1023.6
20260903163504 26 229 6.4 11.3 0.00 0.00 0.00 44 1023.5
20260903163004 26 231 8.0 17.7 0.00 0.00 0.00 45 1023.5
20260903162504 27 232 11.3 17.7 0.00 0.00 0.00 43 1023.5
20260903162004 27 237 9.7 17.7 0.00 0.00 0.00 42 1023.6
20260903161505 27 232 6.4 17.7 0.00 0.00 0.00 42 1023.6
20260903161005 27 224 8.0 19.3 0.00 0.00 0.00 43 1023.6
20260903160005 27 212 8.0 12.9 0.00 0.00 0.00 42 1023.9
20260903155504 26 218 8.0 12.9 0.00 0.00 0.00 42 1023.7
20260903155004 27 220 9.7 16.1 0.00 0.00 0.00 42 1023.7
20260903154504 27 222 9.7 16.1 0.00 0.00 0.00 42 1023.8
20260903154004 27 233 8.0 14.5 0.00 0.00 0.00 42 1023.8
20260903153504 27 241 8.0 14.5 0.00 0.00 0.00 42 1023.8
20260903153005 27 240 8.0 16.1 0.00 0.00 0.00 42 1023.8
20260903152506 27 239 8.0 16.1 0.00 0.00 0.00 41 1023.9
20260903152005 27 229 6.4 12.9 0.00 0.00 0.00 40 1023.9
20260903151504 27 226 8.0 12.9 0.00 0.00 0.00 40 1023.8
20260903151004 27 235 8.0 16.1 0.00 0.00 0.00 39 1023.9
20260903150504 27 237 8.0 16.1 0.00 0.00 0.00 40 1024.0
20260903150005 27 237 6.4 16.1 0.00 0.00 0.00 40 1024.0
20260903145006 27 242 9.7 17.7 0.00 0.00 0.00 40 1023.8
20260903144004 27 240 8.0 11.3 0.00 0.00 0.00 39 1024.0
20260903143505 27 248 8.0 17.7 0.00 0.00 0.00 39 1023.9
20260903143005 27 263 9.7 19.3 0.00 0.00 0.00 38 1024.2
20260903142005 27 273 9.7 24.1 0.00 0.00 0.00 36 1024.1
20260903141004 27 269 9.7 20.9 0.00 0.00 0.00 37 1024.2
20260903140505 27 265 8.0 20.9 0.00 0.00 0.00 36 1024.2
20260903140005 27 262 11.3 22.5 0.00 0.00 0.00 36 1024.2
20260903135505 27 260 14.5 22.5 0.00 0.00 0.00 36 1024.2
20260903133004 26 238 9.7 17.7 0.00 0.00 0.00 37 1024.2
20260903132506 26 234 8.0 17.7 0.00 0.00 0.00 37 1024.2
20260903132004 26 232 9.7 19.3 0.00 0.00 0.00 37 1024.1
20260903131504 26 230 11.3 27.4 0.00 0.00 0.00 37 1024.3
20260903131004 26 232 12.9 27.4 0.00 0.00 0.00 37 1024.1
20260903130504 26 211 12.9 22.5 0.00 0.00 0.00 37 1024.1
20260903130005 26 208 9.7 22.5 0.00 0.00 0.00 38 1024.1
20260903125505 26 205 8.0 19.3 0.00 0.00 0.00 39 1024.1
20260903125004 26 208 11.3 20.9 0.00 0.00 0.00 40 1024.1
20260903124504 26 211 14.5 20.9 0.00 0.00 0.00 39 1024.1
20260903124004 26 212 14.5 20.9 0.00 0.00 0.00 39 1024.2
20260903123505 26 236 9.7 20.9 0.00 0.00 0.00 39 1024.1
20260903123006 26 241 9.7 20.9 0.00 0.00 0.00 40 1024.2
20260903122504 26 239 9.7 20.9 0.00 0.00 0.00 39 1024.3
20260903122005 26 242 8.0 16.1 0.00 0.00 0.00 39 1024.4
20260903121504 26 243 9.7 16.1 0.00 0.00 0.00 39 1024.2
20260903121004 26 244 8.0 16.1 0.00 0.00 0.00 40 1024.3
20260903120004 26 240 6.4 12.9 0.00 0.00 0.00 40 1024.6
20260903115504 26 240 6.4 12.9 0.00 0.00 0.00 41 1024.8
20260903115005 25 235 8.0 20.9 0.00 0.00 0.00 40 1024.6
20260903114505 25 231 9.7 20.9 0.00 0.00 0.00 40 1024.4
20260903114005 25 221 9.7 20.9 0.00 0.00 0.00 40 1024.7
20260903113004 25 223 8.0 16.1 0.00 0.00 0.00 40 1024.7
20260903112505 25 235 8.0 16.1 0.00 0.00 0.00 40 1024.9
20260903112004 25 249 4.8 12.9 0.00 0.00 0.00 42 1024.9
20260903111005 25 263 8.0 14.5 0.00 0.00 0.00 41 1025.0
20260903110504 25 269 9.7 12.9 0.00 0.00 0.00 41 1024.8
20260903110004 25 261 11.3 17.7 0.00 0.00 0.00 41 1025.2
20260903105005 25 248 8.0 20.9 0.00 0.00 0.00 42 1025.1
20260903104505 25 244 9.7 20.9 0.00 0.00 0.00 43 1025.4
20260903104005 24 238 8.0 19.3 0.00 0.00 0.00 45 1025.0
20260903103505 24 229 6.4 19.3 0.00 0.00 0.00 45 1025.2
20260903103004 24 233 6.4 19.3 0.00 0.00 0.00 46 1025.1
20260903102504 24 250 6.4 17.7 0.00 0.00 0.00 46 1025.1
20260903102004 24 249 8.0 17.7 0.00 0.00 0.00 46 1025.2
20260903101004 23 247 6.4 12.9 0.00 0.00 0.00 46 1025.1
20260903100504 23 256 8.0 14.5 0.00 0.00 0.00 45 1025.3
20260903100005 23 268 6.4 14.5 0.00 0.00 0.00 45 1025.2
20260903095505 23 264 6.4 14.5 0.00 0.00 0.00 46 1025.4
20260903095004 23 266 8.0 16.1 0.00 0.00 0.00 45 1025.2
20260903094504 23 265 9.7 16.1 0.00 0.00 0.00 46 1025.2